Location: Carella
(45.8167°N, 9.2667°E)
Time: 00:25:08
(UTC+00:00)

STARLINK-1111 - Pass Details

Date: 30 March 2020
Orbit: 548 x 551 km, 53.0° (Epoch: 30 May)

Event Time Altitude Azimuth Distance (km) Brightness Sun altitude
Rises 18:56:03 0° 300° (WNW) 2,727 9.0 -12.2°
Reaches altitude 10° 18:58:21 10° 306° (NW) 1,831 7.6 -12.5°
Maximum altitude 19:02:23 47° 21° (NNE) 735 4.2 -13.2°
Enters shadow 19:04:56 20° 88° (E) 1,291 5.0 -13.6°
